This demonstration page uses our WeatherBlox Daily Observations layout. Learn more.

Left ArrowRight Arrow

34.02893, -84.19858

Hourly Observations for December 22, 2018

Temp ( °F °C ) Dew Point ( °F °C ) Humidity (%) Winds ( mph kmh ) Pressure ( in mb ) Visibility ( mi km ) Precip ( " mm )
12:23 am 00:23 Cloudy with Mist and Fog 38 3.3 35 1.7 89 89 W 13 20 29.88 1012 6 10 0.00 0.00
12:32 am 00:32 Cloudy 38 3.3 35 1.7 89 89 W 13 20 29.88 1012 7 11 0.00 0.00
12:53 am 00:53 Cloudy with Mist and Fog 38 3.3 35 1.7 89 89 W 14 22 29.89 1012 6 10 0.00 0.00
1:53 am 01:53 Cloudy 38 3.3 35 1.7 89 89 W 13 20 29.90 1013 7 11 0.00 0.00
2:51 am 02:51 Cloudy with Mist and Fog 37 3 36 2 93 93 W 8 13 29.94 1014 6 10 0.00 0.00
2:53 am 02:53 Cloudy with Mist and Fog 38 3.3 35 1.7 89 89 W 9 15 29.95 1014 6 10 0.00 0.00
3:51 am 03:51 Cloudy with Mist and Fog 37 3 36 2 93 93 W 12 19 29.97 1015 6 10 0.00 0.00
3:53 am 03:53 Cloudy with Mist and Fog 38 3.3 35 1.7 89 89 W 9 15 29.98 1015 6 10 0.00 0.00
4:21 am 04:21 Cloudy 38 3.3 34 1.1 86 86 W 12 19 30.00 1016 7 11 0.00 0.00
4:53 am 04:53 Cloudy 38 3.3 33 0.6 83 83 W 12 19 30.00 1016 7 11 0.00 0.00
5:11 am 05:11 Cloudy 38 3.3 33 0.6 83 83 W 12 19 30.00 1016 7 11 0.00 0.00
5:42 am 05:42 Cloudy 38 3.3 31 -0.6 76 76 W 9 15 30.03 1017 8 13 0.00 0.00
5:53 am 05:53 Mostly Cloudy 37 2.8 31 -0.6 79 79 W 7 11 30.02 1017 8 13 0.00 0.00
7:53 am 07:53 Hazy 35 1.7 30 -1.1 82 82 W 7 11 30.08 1019 6 10 0.00 0.00
8:53 am 08:53 Sunny 37 2.8 31 -0.6 79 79 W 8 13 30.12 1020 10 16 0.00 0.00
9:53 am 09:53 Partly Cloudy 39 3.9 31 -0.6 73 73 WNW 9 15 30.15 1021 7 11 0.00 0.00
10:09 am 10:09 Mostly Cloudy 40 4.4 32 0 73 73 WNW 8 13 30.15 1021 7 11 0.00 0.00
10:16 am 10:16 Mostly Sunny 40 4.4 31 -0.6 70 70 W 8 13 30.15 1021 7 11 0.00 0.00
10:53 am 10:53 Sunny 42 5.6 32 0 68 68 W 12 19 30.16 1021 7 11 0.00 0.00
11:53 am 11:53 Sunny 44 6.7 30 -1.1 58 58 NW 9 15 30.15 1021 8 13 0.00 0.00
12:53 pm 12:53 Sunny 46 7.8 32 0 58 58 W 10 17 30.13 1020 8 13 0.00 0.00
1:53 pm 13:53 Sunny 47 8.3 31 -0.6 54 54 W 9 15 30.11 1020 9 14 0.00 0.00
2:53 pm 14:53 Sunny 50 10 31 -0.6 48 48 NW 9 15 30.12 1020 10 16 0.00 0.00
3:53 pm 15:53 Sunny 50 10 29 -1.7 44 44 NW 7 11 30.13 1020 10 16 0.00 0.00
4:53 pm 16:53 Sunny 49 9.4 29 -1.7 46 46 WNW 5 7 30.14 1021 10 16 0.00 0.00
5:53 pm 17:53 Clear 45 7.2 29 -1.7 54 54 NW 5 7 30.15 1021 10 16 0.00 0.00
6:53 pm 18:53 Clear 40 4.4 30 -1.1 68 68 Calm 30.18 1022 10 16 0.00 0.00
7:53 pm 19:53 Clear 37 2.8 31 -0.6 79 79 Calm 30.19 1022 9 14 0.00 0.00
8:53 pm 20:53 Clear 36 2.2 32 0 86 86 Calm 30.19 1022 9 14 0.00 0.00
9:53 pm 21:53 Clear 35 1.7 31 -0.6 85 85 Calm 30.20 1023 8 13 0.00 0.00
10:53 pm 22:53 Clear with Mist and Fog 32 0 31 -0.6 96 96 Calm 30.20 1023 6 10 0.00 0.00
11:53 pm 23:53 Clear with Mist and Fog 31 -0.6 30 -1.1 96 96 Calm 30.21 1023 5 8 0.00 0.00

Powered by AerisWeather